Time,TemperatureF,DewpointF,PressureIn,WindDirection,WindDirectionDegrees,WindSpeedMPH,WindSpeedGustMPH,Humidity,HourlyPrecipIn,Conditions,Clouds,dailyrainin,SolarRadiationWatts/m^2,SoftwareType,DateUTC
2013-11-03 00:11:00,37.0,37.0,-100.00,West,279,6.0,6.0,100,0.06,,,1.27,161.000000,,2013-11-03 07:11:00,
2013-11-03 00:22:00,37.0,37.0,-100.00,West,279,6.0,6.0,100,0.06,,,1.27,161.000000,,2013-11-03 07:22:00,
2013-11-03 00:32:00,37.0,37.0,-100.00,West,279,6.0,6.0,100,0.06,,,1.27,161.000000,,2013-11-03 07:32:00,
2013-11-03 00:41:00,36.0,36.0,-100.00,West,279,2.0,6.0,100,0.06,,,1.32,164.000000,,2013-11-03 07:41:00,
2013-11-03 01:11:00,36.0,36.0,-100.00,West,279,2.0,6.0,100,0.06,,,1.32,164.000000,,2013-11-03 08:11:00,
2013-11-03 01:21:00,36.0,36.0,-100.00,West,279,2.0,6.0,100,0.06,,,1.32,164.000000,,2013-11-03 08:21:00,
2013-11-03 01:32:00,36.0,36.0,-100.00,West,279,2.0,6.0,100,0.06,,,1.32,164.000000,,2013-11-03 08:32:00,
2013-11-03 01:41:00,36.0,36.0,-100.00,West,279,3.0,3.0,100,0.04,,,1.32,157.000000,,2013-11-03 08:41:00,
2013-11-03 01:11:00,36.0,36.0,-100.00,West,279,3.0,3.0,100,0.04,,,1.32,157.000000,,2013-11-03 09:11:00,
2013-11-03 01:21:00,36.0,36.0,-100.00,West,279,3.0,3.0,100,0.04,,,1.32,157.000000,,2013-11-03 09:21:00,
2013-11-03 01:32:00,36.0,36.0,-100.00,West,279,3.0,3.0,100,0.04,,,1.32,157.000000,,2013-11-03 09:32:00,
2013-11-03 01:41:00,37.0,37.0,-100.00,NNW,339,2.0,3.0,100,0.09,,,1.30,156.000000,,2013-11-03 09:41:00,
2013-11-03 02:13:00,37.0,37.0,-100.00,NNW,339,2.0,3.0,100,0.09,,,1.30,156.000000,,2013-11-03 10:13:00,
2013-11-03 02:23:00,37.0,37.0,-100.00,NNW,339,2.0,3.0,100,0.09,,,1.30,156.000000,,2013-11-03 10:23:00,
2013-11-03 02:32:00,37.0,37.0,-100.00,NNW,339,2.0,3.0,100,0.09,,,1.30,156.000000,,2013-11-03 10:32:00,
2013-11-03 02:41:00,36.0,36.0,-100.00,West,279,3.0,3.0,100,0.04,,,1.27,169.000000,,2013-11-03 10:41:00,
2013-11-03 03:12:00,36.0,36.0,-100.00,West,279,3.0,3.0,100,0.04,,,1.27,169.000000,,2013-11-03 11:12:00,
2013-11-03 03:22:00,36.0,36.0,-100.00,West,279,3.0,3.0,100,0.04,,,1.27,169.000000,,2013-11-03 11:22:00,
2013-11-03 03:33:00,36.0,36.0,-100.00,West,279,3.0,3.0,100,0.04,,,1.27,169.000000,,2013-11-03 11:33:00,
2013-11-03 03:41:00,37.0,37.0,-100.00,West,279,3.0,3.0,100,0.05,,,1.20,143.000000,,2013-11-03 11:41:00,
2013-11-03 04:12:00,37.0,37.0,-100.00,West,279,3.0,3.0,100,0.05,,,1.20,143.000000,,2013-11-03 12:12:00,
2013-11-03 04:21:00,37.0,37.0,-100.00,West,279,3.0,3.0,100,0.05,,,1.20,143.000000,,2013-11-03 12:21:00,
2013-11-03 04:31:00,37.0,37.0,-100.00,West,279,3.0,3.0,100,0.05,,,1.20,143.000000,,2013-11-03 12:31:00,
2013-11-03 04:41:00,36.0,36.0,-100.00,NNE,18,2.0,5.0,100,0.02,,,1.10,133.000000,,2013-11-03 12:41:00,
2013-11-03 05:11:00,36.0,36.0,-100.00,NNE,18,2.0,5.0,100,0.02,,,1.10,133.000000,,2013-11-03 13:11:00,
2013-11-03 05:21:00,36.0,36.0,-100.00,NNE,18,2.0,5.0,100,0.02,,,1.10,133.000000,,2013-11-03 13:21:00,
2013-11-03 05:31:00,36.0,36.0,-100.00,NNE,18,2.0,5.0,100,0.02,,,1.10,133.000000,,2013-11-03 13:31:00,
2013-11-03 05:41:00,36.0,36.0,-100.00,West,279,1.0,4.0,100,0.05,,,1.00,138.000000,,2013-11-03 13:41:00,
2013-11-03 06:12:00,36.0,36.0,-100.00,West,279,1.0,4.0,100,0.05,,,1.00,138.000000,,2013-11-03 14:12:00,
2013-11-03 06:22:00,36.0,36.0,-100.00,West,279,1.0,4.0,100,0.05,,,1.00,138.000000,,2013-11-03 14:22:00,
2013-11-03 06:32:00,36.0,36.0,-100.00,West,279,1.0,4.0,100,0.05,,,1.00,138.000000,,2013-11-03 14:32:00,
2013-11-03 06:41:00,38.0,38.0,-100.00,West,279,1.0,1.0,100,0.02,,,0.96,130.000000,,2013-11-03 14:41:00,
2013-11-03 07:11:00,38.0,38.0,-100.00,West,279,1.0,1.0,100,0.02,,,0.96,130.000000,,2013-11-03 15:11:00,
2013-11-03 07:22:00,38.0,38.0,-100.00,West,279,1.0,1.0,100,0.02,,,0.96,130.000000,,2013-11-03 15:22:00,
2013-11-03 07:32:00,38.0,38.0,-100.00,West,279,1.0,1.0,100,0.02,,,0.96,130.000000,,2013-11-03 15:32:00,
2013-11-03 07:41:00,38.0,38.0,-100.00,West,279,2.0,2.0,100,0.00,,,0.94,124.000000,,2013-11-03 15:41:00,
2013-11-03 08:13:00,38.0,38.0,-100.00,West,279,2.0,2.0,100,0.00,,,0.94,124.000000,,2013-11-03 16:13:00,
2013-11-03 08:23:00,38.0,38.0,-100.00,West,279,2.0,2.0,100,0.00,,,0.94,124.000000,,2013-11-03 16:23:00,
2013-11-03 08:34:00,38.0,38.0,-100.00,West,279,2.0,2.0,100,0.00,,,0.94,124.000000,,2013-11-03 16:34:00,
2013-11-03 08:41:00,38.0,38.0,-100.00,West,279,1.0,2.0,100,0.01,,,0.88,139.000000,,2013-11-03 16:41:00,
2013-11-03 09:13:00,38.0,38.0,-100.00,West,279,1.0,2.0,100,0.01,,,0.88,139.000000,,2013-11-03 17:13:00,
2013-11-03 09:22:00,38.0,38.0,-100.00,West,279,1.0,2.0,100,0.01,,,0.88,139.000000,,2013-11-03 17:22:00,
2013-11-03 09:33:00,38.0,38.0,-100.00,West,279,1.0,2.0,100,0.01,,,0.88,139.000000,,2013-11-03 17:33:00,
2013-11-03 09:41:00,37.0,37.0,-100.00,ESE,114,4.0,5.0,100,0.00,,,0.82,145.000000,,2013-11-03 17:41:00,
2013-11-03 10:11:00,37.0,37.0,-100.00,ESE,114,4.0,5.0,100,0.00,,,0.82,145.000000,,2013-11-03 18:11:00,
2013-11-03 10:23:00,37.0,37.0,-100.00,ESE,114,4.0,5.0,100,0.00,,,0.82,145.000000,,2013-11-03 18:23:00,
2013-11-03 10:32:00,37.0,37.0,-100.00,ESE,114,4.0,5.0,100,0.00,,,0.82,145.000000,,2013-11-03 18:32:00,
2013-11-03 10:41:00,39.0,39.0,-100.00,West,279,2.0,5.0,100,0.00,,,0.75,213.000000,,2013-11-03 18:41:00,
2013-11-03 11:11:00,39.0,39.0,-100.00,West,279,2.0,5.0,100,0.00,,,0.75,213.000000,,2013-11-03 19:11:00,
2013-11-03 11:21:00,39.0,39.0,-100.00,West,279,2.0,5.0,100,0.00,,,0.75,213.000000,,2013-11-03 19:21:00,
2013-11-03 11:32:00,39.0,39.0,-100.00,West,279,2.0,5.0,100,0.00,,,0.75,213.000000,,2013-11-03 19:32:00,
2013-11-03 11:41:00,39.0,39.0,-100.00,SSW,199,2.0,2.0,100,0.00,,,0.69,216.000000,,2013-11-03 19:41:00,
2013-11-03 12:11:00,39.0,39.0,-100.00,SSW,199,2.0,2.0,100,0.00,,,0.69,216.000000,,2013-11-03 20:11:00,
2013-11-03 12:22:00,39.0,39.0,-100.00,SSW,199,2.0,2.0,100,0.00,,,0.69,216.000000,,2013-11-03 20:22:00,
2013-11-03 12:32:00,39.0,39.0,-100.00,SSW,199,2.0,2.0,100,0.00,,,0.69,216.000000,,2013-11-03 20:32:00,
2013-11-03 12:41:00,40.0,40.0,-100.00,West,279,2.0,3.0,100,0.01,,,0.63,269.000000,,2013-11-03 20:41:00,
2013-11-03 13:11:00,40.0,40.0,-100.00,West,279,2.0,3.0,100,0.01,,,0.63,269.000000,,2013-11-03 21:11:00,
2013-11-03 13:21:00,40.0,40.0,-100.00,West,279,2.0,3.0,100,0.01,,,0.63,269.000000,,2013-11-03 21:21:00,
2013-11-03 13:34:00,40.0,40.0,-100.00,West,279,2.0,3.0,100,0.01,,,0.63,269.000000,,2013-11-03 21:34:00,
2013-11-03 13:41:00,37.0,37.0,-100.00,West,279,2.0,2.0,100,0.01,,,0.62,245.000000,,2013-11-03 21:41:00,
2013-11-03 14:12:00,37.0,37.0,-100.00,West,279,2.0,2.0,100,0.01,,,0.62,245.000000,,2013-11-03 22:12:00,
2013-11-03 14:22:00,37.0,37.0,-100.00,West,279,2.0,2.0,100,0.01,,,0.62,245.000000,,2013-11-03 22:22:00,
2013-11-03 14:33:00,37.0,37.0,-100.00,West,279,2.0,2.0,100,0.01,,,0.62,245.000000,,2013-11-03 22:33:00,
2013-11-03 14:41:00,37.0,37.0,-100.00,West,279,4.0,4.0,100,0.03,,,0.62,260.000000,,2013-11-03 22:41:00,
2013-11-03 15:12:00,37.0,37.0,-100.00,West,279,4.0,4.0,100,0.03,,,0.62,260.000000,,2013-11-03 23:12:00,
2013-11-03 15:23:00,37.0,37.0,-100.00,West,279,4.0,4.0,100,0.03,,,0.62,260.000000,,2013-11-03 23:23:00,
2013-11-03 15:33:00,37.0,37.0,-100.00,West,279,4.0,4.0,100,0.03,,,0.62,260.000000,,2013-11-03 23:33:00,
2013-11-03 15:41:00,39.0,39.0,-100.00,West,279,1.0,4.0,100,0.03,,,0.65,257.000000,,2013-11-03 23:41:00,
2013-11-03 16:11:00,39.0,39.0,-100.00,West,279,1.0,4.0,100,0.03,,,0.65,257.000000,,2013-11-04 00:11:00,
2013-11-03 16:22:00,39.0,39.0,-100.00,West,279,1.0,4.0,100,0.03,,,0.65,257.000000,,2013-11-04 00:22:00,
2013-11-03 16:32:00,39.0,39.0,-100.00,West,279,1.0,4.0,100,0.03,,,0.65,257.000000,,2013-11-04 00:32:00,
2013-11-03 16:41:00,39.0,39.0,-100.00,West,279,2.0,2.0,100,0.05,,,0.69,227.000000,,2013-11-04 00:41:00,
2013-11-03 17:11:00,39.0,39.0,-100.00,West,279,2.0,2.0,100,0.05,,,0.69,227.000000,,2013-11-04 01:11:00,
2013-11-03 17:22:00,39.0,39.0,-100.00,West,279,2.0,2.0,100,0.05,,,0.69,227.000000,,2013-11-04 01:22:00,
2013-11-03 17:32:00,39.0,39.0,-100.00,West,279,2.0,2.0,100,0.05,,,0.69,227.000000,,2013-11-04 01:32:00,
2013-11-03 17:41:00,38.0,38.0,-100.00,West,279,2.0,2.0,100,0.00,,,0.66,180.000000,,2013-11-04 01:41:00,
2013-11-03 18:12:00,38.0,38.0,-100.00,West,279,2.0,2.0,100,0.00,,,0.66,180.000000,,2013-11-04 02:12:00,
2013-11-03 18:21:00,38.0,38.0,-100.00,West,279,2.0,2.0,100,0.00,,,0.66,180.000000,,2013-11-04 02:21:00,
2013-11-03 18:32:00,38.0,38.0,-100.00,West,279,2.0,2.0,100,0.00,,,0.66,180.000000,,2013-11-04 02:32:00,
2013-11-03 18:41:00,38.0,38.0,-100.00,West,279,2.0,2.0,100,0.04,,,0.69,164.000000,,2013-11-04 02:41:00,
2013-11-03 19:11:00,38.0,38.0,-100.00,West,279,2.0,2.0,100,0.04,,,0.69,164.000000,,2013-11-04 03:11:00,
2013-11-03 19:21:00,38.0,38.0,-100.00,West,279,2.0,2.0,100,0.04,,,0.69,164.000000,,2013-11-04 03:21:00,
2013-11-03 19:34:00,38.0,38.0,-100.00,West,279,2.0,2.0,100,0.04,,,0.69,164.000000,,2013-11-04 03:34:00,
2013-11-03 19:41:00,38.0,38.0,-100.00,West,279,7.0,7.0,100,0.02,,,0.66,146.000000,,2013-11-04 03:41:00,
2013-11-03 20:13:00,38.0,38.0,-100.00,West,279,7.0,7.0,100,0.02,,,0.66,146.000000,,2013-11-04 04:13:00,
2013-11-03 20:23:00,38.0,38.0,-100.00,West,279,7.0,7.0,100,0.02,,,0.66,146.000000,,2013-11-04 04:23:00,
2013-11-03 20:34:00,38.0,38.0,-100.00,West,279,7.0,7.0,100,0.02,,,0.66,146.000000,,2013-11-04 04:34:00,
2013-11-03 20:41:00,35.0,35.0,-100.00,West,279,1.0,7.0,100,0.06,,,0.70,133.000000,,2013-11-04 04:41:00,
2013-11-03 21:13:00,35.0,35.0,-100.00,West,279,1.0,7.0,100,0.06,,,0.70,133.000000,,2013-11-04 05:13:00,
2013-11-03 21:23:00,35.0,35.0,-100.00,West,279,1.0,7.0,100,0.06,,,0.70,133.000000,,2013-11-04 05:23:00,
2013-11-03 21:34:00,35.0,35.0,-100.00,West,279,1.0,7.0,100,0.06,,,0.70,133.000000,,2013-11-04 05:34:00,
2013-11-03 21:41:00,37.0,37.0,-100.00,West,279,1.0,1.0,100,0.02,,,0.71,125.000000,,2013-11-04 05:41:00,
2013-11-03 22:12:00,37.0,37.0,-100.00,West,279,1.0,1.0,100,0.02,,,0.71,125.000000,,2013-11-04 06:12:00,
2013-11-03 22:23:00,37.0,37.0,-100.00,West,279,1.0,1.0,100,0.02,,,0.71,125.000000,,2013-11-04 06:23:00,
2013-11-03 22:32:00,37.0,37.0,-100.00,West,279,1.0,1.0,100,0.02,,,0.71,125.000000,,2013-11-04 06:32:00,
2013-11-03 22:41:00,36.0,36.0,-100.00,West,279,1.0,1.0,100,0.02,,,0.67,130.000000,,2013-11-04 06:41:00,
2013-11-03 23:11:00,36.0,36.0,-100.00,West,279,1.0,1.0,100,0.02,,,0.67,130.000000,,2013-11-04 07:11:00,
2013-11-03 23:21:00,36.0,36.0,-100.00,West,279,1.0,1.0,100,0.02,,,0.67,130.000000,,2013-11-04 07:21:00,
2013-11-03 23:32:00,36.0,36.0,-100.00,West,279,1.0,1.0,100,0.02,,,0.67,130.000000,,2013-11-04 07:32:00,
2013-11-03 23:41:00,36.0,36.0,-100.00,West,279,1.0,1.0,100,0.01,,,0.62,125.000000,,2013-11-04 07:41:00,